Location: Newark
(42.7336°N, 84.5467°W)
Time: 13:51:31
(UTC+00:00)

N. Korean satellite - Visible Passes

Search period start: 23 September 2020 00:00
Search period end: 03 October 2020 00:00
Orbit: 455 x 503 km, 97.2° (Epoch: 22 September)

Date Brightness Start Highest point End Pass type
(mag) Time Alt. Az. Time Alt. Az. Time Alt. Az.
23 Sep 7.7 10:56:45 10° NNE 11:00:20 49° E 11:03:49 10° S visible
24 Sep 9.3 10:31:14 10° NE 10:34:12 23° E 10:37:07 10° SSE visible
25 Sep 10.1 10:06:42 10° ENE 10:07:58 11° E 10:09:14 10° ESE visible
27 Sep 8.4 10:46:11 10° NNE 10:49:33 35° E 10:52:51 10° SSE visible
28 Sep 9.7 10:20:54 10° NE 10:23:23 17° E 10:25:49 10° SE visible
30 Sep 7.4 11:01:18 10° NNE 11:04:52 57° E 11:08:20 10° S visible
01 Oct 9.1 10:35:40 10° NE 10:38:44 26° E 10:41:45 10° SSE visible
02 Oct 10.0 10:10:50 10° ENE 10:12:31 13° E 10:14:10 10° ESE visible
